Probability
0 0 0 0 0 0 0 0 0 0 0 0 1 0 0 1 1 1 3 4 5 6 8 10 11 9 8 8 9 7 5 4 4 4 4 4 5 5 4 3 2 1 0 0
0 0 0 0 0 0 0 0 0 0 0 0 1 1 1 1 1 2 3 4 5 6 8 10 11 9 8 7 8 7 5 4 4 5 5 5 5 6 5 4 2 1 0 0
0 0 0 0 0 0 0 0 0 0 0 0 0 1 2 2 2 2 3 3 4 6 8 10 10 9 7 7 6 6 6 6 6 6 6 5 5 6 6 5 2 0 0 0
0 0 0 0 0 0 0 0 0 0 0 0 0 1 3 3 2 2 2 2 3 4 5 7 9 8 7 6 5 5 7 9 8 8 7 6 5 5 5 4 2 1 0 0
0 0 0 0 0 0 0 0 0 0 0 0 0 1 3 3 2 1 1 2 2 2 3 4 7 8 6 5 4 7 9 12 13 12 10 7 5 4 4 3 3 2 1 1
0 0 0 0 0 0 0 0 0 0 0 0 0 0 1 2 2 1 2 2 2 2 3 5 7 8 6 4 5 8 11 15 17 15 12 9 7 6 5 4 3 3 3 2
0 0 0 0 0 0 0 0 0 0 0 0 0 0 2 3 3 2 3 3 2 2 4 7 9 9 7 6 7 11 15 18 19 17 13 10 10 9 7 4 4 4 4 4
0 0 0 0 0 0 0 0 0 0 0 0 0 1 3 4 3 3 3 4 3 3 5 9 10 9 8 8 10 13 16 18 17 15 11 10 10 8 6 5 4 5 6 5
0 0 0 0 0 0 0 0 0 0 0 0 1 2 4 6 6 6 6 7 6 6 7 9 11 11 9 10 12 14 15 16 15 11 10 10 9 7 6 6 6 7 8 7
0 0 0 0 0 0 0 0 0 0 0 0 0 2 5 8 10 9 9 10 9 9 9 9 11 13 12 12 12 13 13 13 12 11 11 11 10 9 10 10 10 9 10 10
0 0 0 0 0 0 0 0 0 0 0 0 0 2 6 9 10 10 9 10 10 9 9 8 11 14 14 12 12 12 12 11 11 13 13 13 13 12 13 13 13 12 12 12
0 0 0 0 0 0 0 0 0 0 0 0 1 4 6 7 8 8 8 9 8 8 9 9 11 16 15 12 12 13 12 10 11 12 14 15 15 15 15 15 14 13 13 13
0 0 0 0 0 0 0 0 0 0 0 0 1 3 5 7 8 9 9 9 8 9 10 11 14 17 17 15 15 14 11 10 11 11 12 13 14 14 13 13 12 12 12 12
0 0 0 0 0 0 0 0 0 0 0 0 1 3 5 7 9 12 13 12 10 11 13 15 18 20 20 20 18 15 11 10 10 10 11 12 12 10 10 10 10 10 10 11
0 0 0 0 0 0 0 0 0 0 0 1 2 3 4 6 11 15 17 15 13 13 16 19 21 23 24 24 22 17 12 10 11 11 12 12 11 8 7 8 9 9 10 10
0 0 0 0 0 0 0 0 0 0 0 1 2 3 4 6 11 16 18 17 15 15 17 19 22 25 26 26 24 19 14 12 13 14 13 12 10 8 7 8 9 9 9 9
0 0 0 0 0 0 0 0 0 0 0 0 2 3 5 6 10 14 16 16 16 16 16 18 22 25 26 25 23 20 16 13 14 15 14 11 9 8 8 8 9 10 9 9
0 0 0 0 0 0 0 0 0 0 0 1 2 3 4 5 7 11 13 15 16 16 15 16 19 22 23 21 20 21 19 16 16 16 14 12 10 10 10 10 11 11 10 9
1 1 0 0 0 0 0 0 0 0 0 2 3 3 3 3 4 9 15 17 19 18 16 16 18 19 19 17 18 22 22 21 20 19 16 14 13 13 12 12 13 12 11 10
1 1 0 0 0 0 0 0 0 0 2 4 5 5 5 4 5 11 18 22 22 21 19 18 19 19 18 17 19 23 24 23 22 22 20 17 15 14 13 14 13 12 11 10
2 1 0 0 0 0 1 1 2 3 6 7 7 8 9 9 10 13 19 23 25 24 22 21 22 23 21 20 21 22 22 21 21 23 23 20 15 13 13 13 13 11 10 9
2 2 1 1 2 2 3 3 5 8 11 11 10 10 12 13 13 14 17 20 24 25 23 23 26 29 26 22 22 23 22 22 23 24 24 20 14 10 9 10 9 9 8 9
5 4 4 5 5 5 5 6 7 9 11 11 11 12 14 13 13 14 15 18 23 26 25 24 28 30 27 23 23 23 24 25 26 26 25 20 13 8 6 6 5 6 7 9
8 7 7 7 7 7 8 8 8 8 8 8 9 10 10 9 11 15 18 22 26 29 28 25 27 28 25 22 21 22 24 25 25 26 25 19 11 7 6 5 4 5 6 7
8 7 8 8 8 9 10 10 10 9 8 7 7 8 7 6 10 15 22 27 31 33 32 28 26 26 23 21 22 23 22 21 22 23 22 16 10 7 7 6 5 5 4 4
6 7 8 10 10 10 11 12 11 10 9 9 9 8 7 7 10 15 22 28 32 34 34 30 27 26 23 22 24 24 22 20 20 20 19 15 9 8 8 7 5 3 2 2
Wind_Speed
5 7 4 3 4 5 5 4 2 2 1 3 3 1 3 5 6 6 6 6 6 5 6 6 5 5 5 4 4 3 2 2 1 0 1 0 0 0 0 0 1 1 1 2
7 6 3 3 2 4 5 4 1 2 1 3 2 2 3 4 5 5 5 5 5 5 6 7 6 5 5 5 4 4 3 2 1 0 0 1 1 1 1 1 1 1 1 1
8 1 1 4 4 5 4 4 2 0 2 4 4 4 5 5 5 5 5 5 5 6 6 7 7 6 6 5 5 4 3 3 2 1 1 1 0 0 0 0 0 1 1 1
7 3 4 6 3 5 3 1 3 3 5 2 4 2 5 5 6 6 6 5 6 6 6 7 8 7 6 6 5 4 4 3 2 2 1 1 0 1 1 1 1 1 1 2
6 4 5 5 2 4 2 0 3 4 6 4 3 5 5 5 4 4 5 5 5 6 6 6 7 7 6 6 5 5 4 3 3 2 2 1 1 0 1 1 2 1 1 1
5 3 4 3 1 2 3 4 5 7 7 4 1 6 1 2 1 2 4 5 5 5 6 6 6 6 5 6 5 5 5 4 4 3 2 2 1 1 1 1 1 1 1 1
9 7 5 4 5 6 7 7 5 6 5 1 2 4 2 3 1 0 2 4 5 6 6 6 6 6 5 6 5 5 5 5 4 4 3 3 2 2 1 1 1 2 1 1
10 9 7 5 6 5 6 8 6 6 5 2 3 2 3 3 2 1 2 4 5 6 6 6 6 6 6 6 5 5 5 5 4 4 3 3 2 2 1 1 2 2 2 2
8 6 5 4 4 7 6 6 7 8 8 7 2 1 4 3 3 4 4 5 5 5 6 7 7 6 6 6 5 5 5 4 4 4 3 3 2 2 1 1 2 1 2 1
7 6 6 6 6 4 6 6 6 7 6 7 3 3 0 2 3 4 5 4 5 6 6 7 6 6 5 5 5 5 4 4 4 3 3 3 2 2 1 1 1 2 2 2
10 9 7 8 8 7 6 7 6 6 7 8 5 1 4 2 3 4 5 5 5 5 6 6 6 6 6 5 5 5 5 4 4 3 2 2 2 2 1 1 1 1 1 1
8 8 7 7 4 4 7 7 8 7 5 7 7 1 5 2 3 4 4 5 5 5 5 6 6 6 6 6 5 5 4 4 3 3 3 2 2 1 1 0 1 1 1 1
7 8 9 9 9 9 7 7 9 9 7 7 7 1 5 3 3 4 5 5 5 5 5 6 6 6 6 5 5 4 4 4 4 4 3 3 2 2 1 0 0 1 1 1
6 9 10 8 4 4 8 8 9 10 7 7 6 3 2 3 4 4 5 5 5 6 6 6 6 6 6 5 5 4 4 3 4 4 3 3 2 1 1 1 0 0 0 1
7 8 7 6 5 5 7 8 9 9 9 8 5 4 2 1 3 4 5 5 5 5 6 6 6 6 6 6 5 5 4 3 3 3 3 3 2 2 1 1 0 0 0 0
5 6 7 7 6 7 8 8 8 9 9 8 7 5 1 1 3 4 4 5 5 5 5 5 5 5 5 5 5 5 4 4 4 3 3 3 2 2 2 1 1 0 0 0
6 7 9 8 7 9 10 7 8 8 7 8 7 3 2 3 4 4 5 4 3 3 4 4 4 5 5 5 5 5 5 4 4 4 3 3 3 3 2 2 1 1 1 1
6 7 7 7 8 12 4 2 5 6 5 5 4 2 2 2 3 4 4 3 3 3 3 3 4 5 5 5 5 5 5 5 4 4 3 3 3 3 2 2 2 1 1 1
6 7 7 8 10 9 5 4 5 6 5 3 4 2 2 3 4 6 4 3 3 3 3 3 4 4 4 4 5 5 4 4 4 3 3 3 3 2 2 2 2 1 1 1
7 7 8 8 10 9 4 3 3 6 6 2 2 2 3 5 5 3 5 3 4 4 4 4 4 4 4 4 4 4 4 3 3 2 2 2 2 2 3 2 2 1 1 2
9 9 10 10 10 6 1 3 5 7 1 2 1 2 4 3 2 4 5 4 4 4 4 4 5 4 4 4 4 3 3 2 2 2 2 2 2 3 3 2 2 2 2 1
9 9 9 9 11 5 4 4 3 3 3 0 1 1 2 2 4 5 4 4 4 4 4 4 4 4 4 4 4 3 2 1 1 2 2 2 2 2 2 2 2 2 2 3
5 4 4 4 1 5 2 1 3 2 1 1 0 1 2 3 4 4 4 4 4 4 4 4 4 4 4 4 3 3 2 2 2 2 2 1 1 1 1 2 2 3 3 3
4 1 2 2 2 2 2 1 1 2 2 1 0 1 2 3 4 4 4 3 3 3 4 3 4 4 3 3 3 2 2 2 2 2 2 2 2 2 2 2 2 3 3 3
1 3 4 4 2 2 2 1 2 2 1 1 1 1 2 3 3 3 3 3 2 3 3 3 3 3 3 3 3 3 3 2 2 2 2 2 2 2 2 3 2 3 2 2
3 3 4 2 1 2 0 1 1 0 0 1 1 2 2 2 3 2 2 2 2 2 2 2 2 2 2 3 3 2 3 3 3 3 2 2 2 2 3 3 2 1 2 1
Wind_Direction
216 237 253 306 300 302 296 296 317 22 75 240 237 199 152 166 184 188 184 183 184 180 167 163 164 157 153 150 149 146 147 133 175 192 286 265 196 248 137 72 38 340 335 339
217 226 281 306 274 245 249 262 248 115 126 260 247 226 164 170 189 197 197 189 183 173 167 165 171 169 168 163 161 162 169 160 200 152 338 341 351 310 62 26 55 327 332 311
240 263 253 244 230 233 239 277 296 210 185 216 241 199 166 165 184 192 205 200 189 185 180 172 176 181 178 174 173 173 171 171 188 188 177 119 124 260 109 88 75 18 344 327
240 225 243 243 241 267 252 312 258 224 239 220 265 271 143 169 180 192 200 198 193 184 181 175 175 182 184 179 173 170 168 172 173 184 202 206 5 0 18 5 32 28 14 348
215 220 237 248 281 278 344 284 229 238 261 259 233 273 123 165 194 193 192 191 191 188 182 174 172 177 181 176 174 167 163 168 171 177 173 206 239 324 20 18 37 346 33 9
241 222 257 270 232 219 172 197 202 225 247 253 308 282 114 124 187 176 171 178 184 181 176 169 161 165 173 173 175 167 163 167 169 174 175 205 226 278 335 348 355 311 43 23
209 204 198 220 207 189 222 246 242 234 234 263 122 269 33 66 63 236 166 166 170 174 172 166 167 168 170 172 174 167 166 169 172 176 185 197 214 216 232 279 309 320 346 343
216 204 193 208 244 246 239 268 282 293 301 299 187 273 74 87 88 129 154 154 159 168 166 164 168 170 169 167 165 168 170 174 176 179 189 201 221 236 251 292 315 330 330 336
232 215 170 198 240 260 245 255 286 283 278 277 271 219 142 141 143 146 148 151 156 161 160 166 167 166 160 157 158 164 165 172 180 181 188 197 211 246 278 280 284 312 331 333
242 234 199 184 205 211 278 272 257 272 286 284 266 248 87 140 160 157 156 156 147 150 158 161 159 160 153 151 149 154 155 164 173 176 195 182 200 209 223 269 331 327 335 347
241 234 204 200 219 226 209 227 253 272 287 287 290 25 63 131 172 174 162 152 143 150 156 154 152 150 150 153 150 151 152 157 161 164 176 188 189 194 209 220 272 290 325 343
226 243 233 217 197 261 251 248 244 257 263 273 285 55 90 111 157 165 151 136 139 146 148 149 149 150 154 157 154 151 154 157 157 154 166 170 182 190 215 209 301 310 326 333
200 234 226 212 198 200 225 238 251 260 260 263 271 145 117 138 157 159 154 146 146 145 149 152 154 156 157 156 153 155 162 153 152 153 161 152 161 165 181 269 322 323 349 347
236 240 250 259 262 215 216 223 240 253 254 258 266 281 160 172 166 163 164 162 155 150 156 160 161 164 159 157 157 166 168 160 159 164 166 160 172 183 200 206 189 237 336 7
235 238 244 260 268 248 239 236 230 244 265 277 281 277 295 207 175 166 169 164 156 156 160 163 169 162 162 162 166 172 170 167 166 174 178 173 177 177 188 199 201 142 41 36
236 241 232 234 229 237 239 235 233 237 253 260 264 269 358 131 155 159 166 167 166 165 163 159 162 161 164 167 171 170 174 174 175 183 182 176 186 187 192 192 195 182 171 21
213 224 237 240 226 241 235 231 238 239 246 260 263 261 154 170 166 169 165 168 167 159 153 158 162 165 165 169 173 175 173 175 178 181 183 185 192 188 190 192 172 191 189 148
221 229 237 244 231 242 250 236 246 247 248 253 263 245 195 182 171 157 154 156 150 140 143 154 164 162 166 167 170 174 170 174 178 182 185 189 197 194 189 190 183 189 177 167
222 224 239 244 241 237 215 218 228 235 230 245 250 222 176 150 167 151 143 145 140 133 136 154 164 159 160 160 157 163 169 169 180 191 198 201 207 202 197 198 199 191 187 203
200 220 238 237 252 250 209 163 226 244 223 185 235 212 188 194 223 142 135 145 131 123 128 146 154 154 154 152 153 164 169 173 188 192 200 196 203 206 205 198 203 195 215 228
199 210 230 240 247 244 108 137 199 233 213 110 229 216 203 206 335 91 124 131 124 123 127 140 151 149 147 151 156 169 170 182 184 179 186 189 198 207 196 186 198 211 227 243
219 217 220 235 244 234 102 168 223 9 27 109 185 200 203 140 108 120 128 134 133 129 130 137 141 140 146 154 164 176 176 165 165 180 188 183 192 220 174 180 201 215 230 224
241 273 259 253 283 69 94 61 40 13 344 307 217 169 164 160 154 146 141 145 146 142 138 143 143 142 148 151 168 183 160 158 175 178 178 163 171 211 204 211 213 218 228 245
173 273 245 221 162 109 112 79 23 3 336 305 199 143 162 168 157 149 142 146 151 148 147 153 159 157 150 156 173 171 153 170 187 184 178 171 179 200 197 235 239 248 251 254
197 200 215 221 197 185 157 90 31 27 10 84 130 136 158 157 149 139 140 141 148 150 151 157 168 171 165 168 179 168 152 182 199 193 192 197 200 212 219 229 254 263 273 312
219 228 245 244 165 252 152 44 11 14 117 125 139 138 125 131 135 129 126 126 152 163 162 171 183 177 164 170 174 162 171 191 209 212 211 221 220 210 231 221 208 170 239 150